Home   Weather   Punta Cana   Past weeks

Flag for Dominican Republic Past Weather in Punta Cana, Dominican Republic — Yesterday and Last 2 Weeks

Now
82 °F

Broken clouds.


Feels Like: 89 °F
Forecast: 78 / 86 °F
Wind: 14 mph from East

Location: Punta Cana

Current Time: May 23, 2017 at 8:54:21 am

Latest Report: May 23, 2017 at 8:00 am


Visibility: N/A

Pressure: 30.04 "Hg

Humidity: 79%

Dew Point: 75 °F

Location of Punta CanaLocation

Past Weather in Punta Cana — Graph

°F

Punta Cana Temperature Yesterday

Maximum temperature yesterday: 84 °F (at 10:00 am)
Minimum temperature yesterday: 77 °F (at 6:00 am)
Average temperature yesterday: 81 °F

High & Low Weather Summary for the Past Weeks

 TemperatureHumidityPressure
High86 °F (May 15, 1:00 pm)100% (May 8, 11:00 pm)30.07 "Hg (May 8, 11:00 pm)
Low70 °F (May 10, 6:00 am)62% (May 9, 1:00 pm)29.89 "Hg (May 8, 5:00 pm)
Average80 °F83%29.98 "Hg
* Reported May 8 7:00 am — May 23 7:00 am, Punta Cana. Weather by CustomWeather, © 2017

Note: Actual official high and low records may vary slightly from our data, if they occured in-between our weather recording intervals... More about our weather records

Advertising

Punta Cana Weather History for the Previous 24 Hours

Scroll right to see more
 ConditionsComfort  
Time TempWeatherWind HumidityBarometerVisibility
7:00 am
Tue, May 23
81 °FScattered clouds.9 mph84%30.04 "HgN/A
6:00 am75 °FScattered clouds.9 mph100%29.98 "HgN/A
5:00 am81 °FPassing clouds.12 mph89%30.01 "HgN/A
4:00 am81 °FPassing clouds.12 mph84%29.98 "HgN/A
3:00 am81 °FPassing clouds.12 mph89%29.98 "HgN/A
2:00 am81 °FPassing clouds.12 mph89%30.01 "HgN/A
1:00 am81 °FPassing clouds.12 mph89%30.01 "HgN/A
12:00 am81 °FPassing clouds.12 mph89%30.04 "HgN/A
11:00 pm
Mon, May 22
81 °FPassing clouds.12 mph84%30.04 "HgN/A
10:00 pm81 °FPassing clouds.12 mph84%30.04 "HgN/A
9:00 pm81 °FPassing clouds.12 mph89%30.04 "HgN/A
8:00 pm81 °FPassing clouds.12 mph84%30.01 "HgN/A
7:00 pm81 °FBroken clouds.12 mph84%30.01 "HgN/A
6:00 pm82 °FWarm.14 mph79%29.98 "HgN/A
5:00 pm82 °FBroken clouds.14 mph79%29.98 "HgN/A
4:00 pm84 °FBroken clouds.12 mph74%30.01 "HgN/A
3:00 pm84 °FBroken clouds.14 mph74%30.01 "HgN/A
2:00 pm84 °FBroken clouds.14 mph74%30.01 "HgN/A
1:00 pm84 °FScattered clouds.14 mph79%30.04 "HgN/A
12:00 pm84 °FScattered clouds.16 mph74%30.04 "HgN/A
11:00 am84 °FPartly sunny.14 mph79%30.04 "HgN/A
10:00 am84 °FPartly sunny.14 mph74%30.07 "HgN/A
9:00 am81 °FScattered showers. Partly sunny.14 mph84%30.07 "Hg5 mi
8:00 am81 °FScattered clouds.12 mph89%30.04 "HgN/A
Weather by CustomWeather, © 2017

See weather overviewHow to use our weather pages